Regional Weather Roundup
Issued by NWS Northern Indiana

Home | Current Version | Previous Version | Graphics & Text | Print | Product List | Glossary On
Versions: 1 2 3 4 5 6 7 8 9 10 11 12 13 14 15 16 17 18 19 20 21 22 23 24 25 26 27 28 29 30 31 32 33 34 35 36 37 38 39 40 41 42 43 44 45 46 47 48 49 50
000
ASUS43 KIWX 231400
RWRIWX

KIWX WEATHER ROUNDUP
NATIONAL WEATHER SERVICE NORTHERN INDIANA
1000 AM EDT WED JUL 23 2014

NOTE: "FAIR" INDICATES FEW OR NO CLOUDS BELOW 12,000 FEET WITH NO
SIGNIFICANT WEATHER AND/OR OBSTRUCTIONS TO VISIBILITY.

* THESE STATIONS ARE NOT UNDER NWS QUALITY CONTROL. THEY ALSO MAY NOT
  REPORT WEATHER SUCH AS PRECIPITATION OR FOG.

INZ001>027-231500-
NORTHERN INDIANA

CITY           SKY/WX    TMP DP  RH WIND       PRES   REMARKS
GARY*          PTSUNNY   68  59  73 N14G28    30.13R
VALPARAISO     CLOUDY    67  60  78 N13G20    30.10S
KNOX*          SUNNY     68  60  74 N12       30.07F
SOUTH BEND     CLOUDY    66  59  78 N12       30.08F
ELKHART*       CLOUDY    64  59  82 N8        30.07S
GOSHEN         CLOUDY    65  63  93 N13       30.05S
MONTICELLO*    CLOUDY    68  65  91 N6        30.06S
WARSAW*        CLOUDY    64  63  94 N8        30.05S
ANGOLA*        CLOUDY    66  57  72 N9        30.03S
FORT WAYNE     CLOUDY    71  67  87 W5        30.03F

$$
INZ028>050-231500-
CENTRAL INDIANA

CITY           SKY/WX    TMP DP  RH WIND       PRES   REMARKS
LAFAYETTE      CLOUDY    69  65  86 N10       30.06R
KOKOMO*        CLOUDY    70  70 100 NW8       30.05S
MUNCIE*        CLOUDY    72  66  81 W9        30.06S
INDIANAPOLIS   TSTM      69  68  96 E6        30.06R VSB 1/2

$$
MIZ043>046-050>051-056>058-064>065-071>073-077>080-231500-
SOUTHWEST LOWER MICHIGAN

CITY           SKY/WX    TMP DP  RH WIND       PRES   REMARKS
BATTLE CREEK   CLOUDY    67  57  70 N14       30.07R
BENTON HARBOR  CLOUDY    63  56  78 NE8G17    30.10R
COLDWATER*     CLOUDY    66  60  81 N12       30.04S
HILLSDALE*     MOSUNNY   68  62  80 N13       30.03S
HOLLAND        PTSUNNY   67  57  70 N10G16    30.11R
GRAND RAPIDS   PTSUNNY   68  57  68 N14       30.10R
KALAMAZOO      CLOUDY    66  57  72 N14       30.07S
STURGIS*       CLOUDY    64  61  88 N7        30.05S
THREE RIVERS*  CLOUDY    66  61  82 N8        30.07S

$$
OHZ001>008-015>018-024>025-231500-
NORTHWEST OHIO

CITY           SKY/WX    TMP DP  RH WIND       PRES   REMARKS
DEFIANCE       CLOUDY    75  67  76 NW6       30.01R
FINDLAY        PTSUNNY   76  69  79 SW12      29.99R
TOLEDO EXPRESS CLOUDY    71  63  75 N13       30.00R
TOLEDO METCALF CLOUDY    72  66  81 N10       30.00R
LIMA           CLOUDY    73  68  84 SW7       30.02S

$$
&&


USA.gov is the U.S. government's official web portal to all federal, state and local government web resources and services.